Regional Weather Roundup
Issued by NWS Little Rock, AR

Home | Current Version | Previous Version | Text Only | Print | Product List | Glossary On
Versions: 1 2 3 4 5 6 7 8 9 10 11 12 13 14 15 16 17 18 19 20 21 22 23 24 25 26 27
000
ASUS44 KLZK 231805
RWRLZK

WEATHER ROUNDUP FOR ARKANSAS
NATIONAL WEATHER SERVICE LITTLE ROCK AR
100 PM CDT WED APR 23 2014

NOTE: "FAIR" INDICATES FEW OR NO CLOUDS BELOW 12,000 FEET WITH NO
SIGNIFICANT WEATHER AND/OR OBSTRUCTIONS TO VISIBILITY.

ARZ001-003-010-029-231900-
NORTHWEST ARKANSAS

CITY           SKY/WX    TMP DP  RH WIND       PRES   REMARKS
FAYETTEVILLE   FAIR      75  50  41 SE9G18    29.94F
6HR MIN TEMP:  41; 6HR MAX TEMP:  75;

FORT SMITH     FAIR      79  53  40 SE9       29.92F
6HR MIN TEMP:  51; 6HR MAX TEMP:  79;

HARRISON       FAIR      73  42  32 SE8       29.98F
6HR MIN TEMP:  48; 6HR MAX TEMP:  73;

BENTONVILLE    FAIR      75  48  38 SE14      29.94F
6HR MIN TEMP:  54; 6HR MAX TEMP:  75;

ROGERS         FAIR      75  45  34 SE15G21   29.94F
6HR MIN TEMP:  50; 6HR MAX TEMP:  76;

SILOAM SPGS    FAIR      75  50  41 S18G24    29.94F
6HR MIN TEMP:  48; 6HR MAX TEMP:  75;

HIGHFILL       FAIR      76  48  37 S15G21    29.93F
6HR MIN TEMP:  50; 6HR MAX TEMP:  76;

SPRINGDALE     MOSUNNY   73  48  40 S13G24    29.96F
$$

ARZ004-005-016-231900-
NORTH CENTRAL ARKANSAS

CITY           SKY/WX    TMP DP  RH WIND       PRES   REMARKS
BATESVILLE     FAIR      72  43  35 S5        30.02F
6HR MIN TEMP:  45; 6HR MAX TEMP:  72;

FLIPPIN        FAIR      72  41  33 E8        29.99F
6HR MIN TEMP:  43; 6HR MAX TEMP:  72;

MTN HOME       FAIR      71  37  28 S9        29.99F
6HR MIN TEMP:  49; 6HR MAX TEMP:  72;

$$

ARZ040-041-231900-
WEST CENTRAL ARKANSAS

CITY           SKY/WX    TMP DP  RH WIND       PRES   REMARKS
MENA           FAIR      79  54  41 SE5       29.96F
MOUNT IDA      FAIR      75  54  47 S8        29.95F
6HR MIN TEMP:  45; 6HR MAX TEMP:  75;

$$

ARZ009-017-025-026-028-231900-
NORTHEAST ARKANSAS

CITY           SKY/WX    TMP DP  RH WIND       PRES   REMARKS
CORNING          N/A     72  37  28 E7        30.04F HAZE
JONESBORO      FAIR      70  38  31 E9        30.02F
6HR MIN TEMP:  51; 6HR MAX TEMP:  71;

NEWPORT        FAIR      70  43  37 VRB5      30.04F
6HR MIN TEMP:  50; 6HR MAX TEMP:  70;

WALNUT RIDGE   FAIR      70  37  30 SE9       30.03F
6HR MIN TEMP:  48; 6HR MAX TEMP:  70;

BLYTHEVILLE    FAIR      71  40  32 E7        30.04F
6HR MIN TEMP:  47; 6HR MAX TEMP:  71;

NW BLYTHEVILLE SUNNY     70  37  30 E5        30.04
$$

ARZ022-023-033-042-044-231900-
CENTRAL ARKANSAS

CITY           SKY/WX    TMP DP  RH WIND       PRES   REMARKS
LITTLE ROCK    FAIR      74  45  35 E9        30.00F
6HR MIN TEMP:  52; 6HR MAX TEMP:  74;

N LITTLE ROCK  MOSUNNY   72  49  43 E10G17    30.00F
6HR MIN TEMP:  55; 6HR MAX TEMP:  72;

JACKSONVILLE   FAIR      73  46  38 SE8       30.00F
6HR MIN TEMP:  51; 6HR MAX TEMP:  73;

SEARCY         FAIR      73  45  36 VRB7      30.02F
6HR MIN TEMP:  47; 6HR MAX TEMP:  73;

HOT SPRINGS    FAIR      76  50  40 S9        29.98F
6HR MIN TEMP:  51; 6HR MAX TEMP:  76;

RUSSELLVILLE   FAIR      74  46  36 VRB6      29.97F
6HR MIN TEMP:  57; 6HR MAX TEMP:  74;

CLINTON        FAIR      73  46  38 SE5       30.00F
$$

ARZ036-231900-
EAST ARKANSAS

CITY           SKY/WX    TMP DP  RH WIND       PRES   REMARKS
WEST MEMPHIS   LGT RAIN  73  38  27 N3        30.01F
6HR MIN TEMP:  48; 6HR MAX TEMP:  74; 6HR PCP: TRACE;

$$

ARZ050-053-066-070-073-231900-
SOUTHWEST ARKANSAS

CITY           SKY/WX    TMP DP  RH WIND       PRES   REMARKS
ARKADELPHIA    FAIR      78  54  43 VRB3      29.97F
6HR MIN TEMP:  54; 6HR MAX TEMP:  78;

TEXARKANA      FAIR      79  59  50 S12       29.94F
6HR MIN TEMP:  54; 6HR MAX TEMP:  79;

EL DORADO      FAIR      78  55  44 CALM      29.97F
6HR MIN TEMP:  54; 6HR MAX TEMP:  78;

DE QUEEN       PTSUNNY   78  60  53 S6        29.92F
6HR MIN TEMP:  49; 6HR MAX TEMP:  79;

$$

ARZ056-057-069-231900-
SOUTHEAST ARKANSAS

CITY           SKY/WX    TMP DP  RH WIND       PRES   REMARKS
PINE BLUFF     FAIR      74  47  38 SE8       30.00F
6HR MIN TEMP:  54; 6HR MAX TEMP:  74; 6HR PCP:  0.01;

STUTTGART      FAIR      73  45  35 SE9       30.02F
6HR MIN TEMP:  54; 6HR MAX TEMP:  73;

MONTICELLO     FAIR      75  46  35 E9        29.99F
6HR MIN TEMP:  50; 6HR MAX TEMP:  75; 6HR PCP: TRACE;


$$





USA.gov is the U.S. government's official web portal to all federal, state and local government web resources and services.